Regional Weather Roundup
Issued by NWS

Home | Current Version | Previous Version | Graphics & Text | Print | Product List | Glossary On
Versions: 1 2 3 4 5 6 7 8 9 10 11 12 13 14 15 16 17 18 19 20 21 22 23 24 25 26 27 28 29 30 31 32 33 34 35 36 37 38 39 40 41 42 43 44 45 46 47 48 49 50
000
ASUS45 KSLC 041010
RWRUT

UTAH REGIONAL WEATHER ROUNDUP
NATIONAL WEATHER SERVICE SALT LAKE CITY UT
300 AM MST SUN DEC 04 2016

UTZ001>011-023>025-041100-

NORTHERN UTAH

CITY           SKY/WX    TMP DP  RH WIND       PRES   REMARKS
BRIGHAM CITY     N/A     32  21  65 CALM      30.23S
HILL AFB       PTCLDY    25  17  72 SE7       30.21F WCI  18
LOGAN          MOCLDY   N/A N/A N/A NE6       30.21R
OGDEN          PTCLDY    25  18  74 S7        30.21F WCI  17
SALT LAKE CITY PTCLDY    30  21  69 SE12      30.23F WCI  20
TOOELE VALLEY  CLEAR     28  21  74 S15G22    30.22F WCI  17
WENDOVER       CLEAR     23  12  63 CALM      30.22S
HEBER CITY     FOG       16  12  86 CALM      30.23F VSB 1/2
WEST JORDAN    CLEAR     28  25  90 S15       30.22F WCI  16

$$

UTZ011>015-024>027-041100-

CENTRAL/NORTHEAST UTAH

CITY           SKY/WX    TMP DP  RH WIND       PRES   REMARKS
PROVO AIRPORT  NOT AVBL
MOAB/CANYONLAN CLEAR     20  11  68 CALM      30.22R
DELTA          CLEAR     19  16  86 NE5       30.26S WCI  13
PRICE          CLEAR     18  13  80 CALM      30.18S
ROOSEVELT      CLOUDY    18  12  79 CALM      30.23F
VERNAL         CLOUDY    14   9  80 CALM      30.21F

$$

UTZ013>016-019>022-027-041100-

SOUTHERN UTAH

CITY           SKY/WX    TMP DP  RH WIND       PRES   REMARKS
BRYCE CANYON   NOT AVBL
CEDAR CITY     CLEAR     18  12  77 SE5       30.21F WCI  11
MILFORD        CLEAR     16  11  80 CALM      30.25R
ST GEORGE      MOSUNNY   34  14  44 SE3       30.24S
HANKSVILLE     CLEAR     19  12  73 CALM      30.25F
BLANDING       CLEAR     22  12  64 CALM      30.24S

$$

REGIONAL REPORTS     COLORADO/ARIZONA

CITY           SKY/WX    TMP DP  RH WIND       PRES   REMARKS
CRAIG, CO      CLOUDY     9   5  84 CALM      30.20S
GRAND JUNCTION CLOUDY    24  16  71 E12       30.24S WCI  13
RIFLE, CO      CLOUDY    14   9  80 SW3       30.26S
MONTROSE, CO   CLOUDY    18  10  71 SE12      30.26S WCI   5
CORTEZ, CO     CLOUDY    15  10  80 NE9       30.15S WCI   3
COLORADO CITY    N/A     21  18  86 SE3       30.22F
PAGE, AZ       CLEAR     31   9  39 CALM      30.20F
GRAND CANYON   CLEAR     14   9  80 NE6       30.19S WCI   5
KINGMAN, AZ    CLEAR     34  10  37 E3        30.17R
FLAGSTAFF, AZ  CLEAR     28   7  41 NE17      30.14S WCI  16

$$

REGIONAL REPORTS    NEVADA/IDAHO/WYOMING

CITY           SKY/WX    TMP DP  RH WIND       PRES   REMARKS
LAS VEGAS, NV  CLEAR     41  12  30 S6        30.18F
ELY, NY        CLEAR     12   7  80 S16       30.22F WCI  -5
ELKO, NV       CLEAR     18  13  80 CALM      30.21F
POCATELLO, ID  CLOUDY    35  23  61 S17G24    30.12S WCI  25
BURLEY, ID     MOCLDY    33  20  58 SW16      30.12F WCI  23
FORT BRIDGER,    N/A     22  15  74 W15       30.13F WCI   9
EVANSTON, WY   CLOUDY    18  12  77 S9        30.12F WCI   7
ROCK SPRINGS,  CLOUDY    22  15  75 W23       30.09F WCI   6

$$



USA.gov is the U.S. government's official web portal to all federal, state and local government web resources and services.